N4NVD-13 Weather Reports


Display with metric or nautical units.
time (UTC)temp
F
wind
direction
speed
MPH
gust
MPH
rain 1hr
in
rain 24hr
in
rain mn
in
humidity
%
barometer
mb
20260904095427 79 228 2.0 2.0 0.00 0.00 0.00 99 1012.5
20260904094917 79 145 0.0 1.0 0.00 0.00 0.00 99 1012.6
20260904094412 79 135 0.0 0.0 0.00 0.00 0.00 99 1012.6
20260904093908 80 135 0.0 0.0 0.00 0.00 0.00 99 1012.7
20260904093408 80 162 0.0 0.0 0.00 0.00 0.00 99 1012.5
20260904092903 80 162 0.0 0.0 0.00 0.00 0.00 99 1012.3
20260904092400 80 270 0.0 0.0 0.00 0.00 0.00 99 1012.2
20260904091855 80 232 0.0 3.0 0.00 0.00 0.00 99 1012.3
20260904091351 80 192 1.0 5.0 0.00 0.00 0.00 98 1012.3
20260904090845 80 251 0.0 3.0 0.00 0.00 0.00 98 1012.6
20260904090342 80 194 0.0 4.0 0.00 0.00 0.00 98 1012.2
20260904085836 80 132 0.0 3.0 0.00 0.00 0.00 98 1012.2
20260904085331 80 188 0.0 3.0 0.00 0.00 0.00 98 1012.3
20260904084826 80 190 2.0 3.0 0.00 0.00 0.00 98 1012.2
20260904084322 80 63 0.0 2.0 0.00 0.00 0.00 97 1012.2
20260904083818 80 117 2.0 3.0 0.00 0.00 0.00 97 1012.1
20260904083314 80 79 3.0 4.0 0.00 0.00 0.00 97 1011.9
20260904082809 80 154 0.0 3.0 0.00 0.00 0.00 97 1012.2
20260904082306 80 229 0.0 2.0 0.00 0.00 0.00 97 1012.1
20260904081759 80 225 0.0 5.0 0.00 0.00 0.00 97 1012.2
20260904081255 80 220 3.0 8.0 0.00 0.00 0.00 97 1012.1
20260904080750 80 221 4.0 8.0 0.00 0.00 0.00 98 1012.0
20260904080246 80 227 5.0 10.0 0.00 0.00 0.00 98 1012.2
20260904075742 80 206 3.0 7.0 0.00 0.00 0.00 98 1012.1
20260904075236 80 208 6.0 10.0 0.00 0.00 0.00 98 1012.2
20260904074730 80 206 3.0 6.0 0.00 0.00 0.00 98 1012.4
20260904074224 80 210 2.0 5.0 0.00 0.00 0.00 98 1012.5
20260904073720 80 212 5.0 7.0 0.00 0.00 0.00 98 1012.4
20260904073216 80 221 0.0 6.0 0.00 0.00 0.00 99 1012.4
20260904072711 80 162 3.0 8.0 0.00 0.00 0.00 98 1012.7
20260904072206 80 213 4.0 5.0 0.00 0.00 0.00 98 1012.6
20260904071702 80 226 5.0 6.0 0.00 0.00 0.00 98 1012.7
20260904071157 80 228 2.0 3.0 0.00 0.00 0.00 98 1012.9
20260904070656 80 249 0.0 3.0 0.00 0.00 0.00 97 1013.0
20260904070155 80 162 1.0 2.0 0.00 0.00 0.00 97 1013.0
20260904065650 80 151 0.0 2.0 0.00 0.00 0.00 97 1013.1
20260904065148 80 60 3.0 3.0 0.00 0.00 0.00 96 1013.0
20260904064647 80 162 0.0 0.0 0.00 0.00 0.00 96 1012.9
20260904064143 80 140 0.0 2.0 0.00 0.00 0.00 96 1013.1
20260904063638 80 161 0.0 3.0 0.00 0.00 0.00 96 1012.7
20260904063133 81 126 1.0 4.0 0.00 0.00 0.00 96 1013.1
20260904062630 81 151 0.0 2.0 0.00 0.00 0.00 96 1013.2
20260904062125 81 168 0.0 4.0 0.00 0.00 0.00 96 1012.9
20260904061615 81 151 1.0 3.0 0.00 0.00 0.00 96 1013.1
20260904061112 81 126 1.0 2.0 0.00 0.00 0.00 96 1013.0
20260904060608 81 111 3.0 3.0 0.00 0.00 0.00 96 1013.0
20260904060104 81 145 0.0 3.0 0.00 0.00 0.00 95 1013.1
20260904055604 81 175 3.0 4.0 0.00 0.00 0.00 95 1012.9
20260904055059 81 90 0.0 3.0 0.00 0.00 0.00 95 1013.0
20260904054555 81 107 2.0 5.0 0.00 0.00 0.00 95 1012.9
20260904054051 81 213 2.0 3.0 0.00 0.00 0.00 95 1012.9
20260904053550 81 176 2.0 3.0 0.00 0.00 0.00 95 1012.7
20260904053046 81 156 2.0 3.0 0.00 0.00 0.00 95 1012.7
20260904052542 81 152 3.0 4.0 0.00 0.00 0.00 95 1012.5
20260904052038 81 154 0.0 4.0 0.00 0.00 0.00 95 1012.7
20260904051534 81 200 1.0 5.0 0.00 0.00 0.00 95 1012.5
20260904051033 81 114 1.0 3.0 0.00 0.00 0.00 94 1012.6
20260904050529 81 254 0.0 4.0 0.00 0.00 0.00 94 1012.5
20260904050025 81 210 3.0 5.0 0.00 0.00 0.00 94 1012.6
20260904045520 81 148 2.0 3.0 0.00 0.00 0.00 94 1012.6
20260904045015 81 188 0.0 3.0 0.00 0.00 0.00 94 1012.5
20260904044511 81 161 3.0 5.0 0.00 0.00 0.00 94 1012.4
20260904044007 81 185 0.0 5.0 0.00 0.00 0.00 93 1012.4
20260904043503 81 135 2.0 3.0 0.00 0.00 0.00 93 1012.7
20260904042958 81 114 3.0 5.0 0.00 0.00 0.00 93 1012.4
20260904042455 81 162 4.0 7.0 0.00 0.00 0.00 93 1012.5
20260904041949 81 153 7.0 10.0 0.00 0.00 0.00 93 1012.6
20260904041445 81 166 2.0 7.0 0.00 0.00 0.00 93 1012.6
20260904040936 81 106 0.0 5.0 0.00 0.00 0.00 93 1012.4
20260904040435 81 173 1.0 5.0 0.00 0.00 0.00 93 1012.4
20260904035932 81 55 3.0 3.0 0.00 0.00 0.00 93 1012.4
20260904035427 81 151 0.0 6.0 0.00 0.00 0.00 93 1012.6
20260904034926 82 175 2.0 3.0 0.00 0.00 0.00 92 1012.4
20260904034421 82 195 0.0 5.0 0.00 0.00 0.00 92 1012.6
20260904033917 82 205 3.0 6.0 0.00 0.00 0.00 92 1012.7
20260904033408 82 187 2.0 7.0 0.00 0.00 0.00 92 1012.4
20260904032904 82 167 3.0 6.0 0.00 0.00 0.00 92 1012.5
20260904032358 82 212 2.0 5.0 0.00 0.00 0.00 92 1012.4
20260904031853 82 140 0.0 5.0 0.00 0.00 0.00 91 1012.5
20260904031348 82 121 2.0 5.0 0.00 0.00 0.00 91 1012.5
20260904030844 81 172 2.0 5.0 0.00 0.00 0.00 91 1012.3
20260904030340 81 150 0.0 6.0 0.00 0.00 0.00 91 1012.6
20260904025835 82 26 1.0 7.0 0.00 0.00 0.00 90 1012.4
20260904025331 81 152 3.0 5.0 0.00 0.00 0.00 90 1012.3
20260904024830 81 112 2.0 4.0 0.00 0.00 0.00 90 1012.2
20260904024325 81 187 0.0 4.0 0.00 0.00 0.00 90 1012.2
20260904023822 81 156 4.0 6.0 0.00 0.00 0.00 90 1012.1
20260904023318 81 138 3.0 4.0 0.00 0.00 0.00 90 1011.9
20260904022817 81 112 0.0 5.0 0.00 0.00 0.00 90 1012.0
20260904022314 81 125 0.0 4.0 0.00 0.00 0.00 89 1012.1
20260904021811 81 206 0.0 7.0 0.00 0.00 0.00 89 1011.9
20260904021310 81 240 0.0 5.0 0.00 0.00 0.00 89 1012.0
20260904020806 81 159 0.0 4.0 0.00 0.00 0.00 89 1011.8
20260904020301 81 124 0.0 5.0 0.00 0.00 0.00 89 1011.8
20260904015759 81 108 2.0 6.0 0.00 0.00 0.00 88 1011.7
20260904015254 82 135 3.0 7.0 0.00 0.00 0.00 88 1011.4
20260904014753 82 94 3.0 5.0 0.00 0.00 0.00 88 1011.5
20260904014248 82 121 4.0 6.0 0.00 0.00 0.00 88 1011.5
20260904013744 82 199 4.0 6.0 0.00 0.00 0.00 88 1011.5
20260904013240 82 0 0.0 4.0 0.00 0.00 0.00 88 1011.5
20260904012736 82 208 3.0 8.0 0.00 0.00 0.00 88 1011.4
20260904012235 82 180 0.0 5.0 0.00 0.00 0.00 88 1011.3
20260904011735 82 177 5.0 5.0 0.00 0.00 0.00 87 1011.3
20260904011230 82 100 2.0 5.0 0.00 0.00 0.00 87 1011.5
20260904010725 82 203 3.0 6.0 0.00 0.00 0.00 88 1011.4
20260904010222 82 138 0.0 5.0 0.00 0.00 0.00 87 1011.2
20260904005716 82 221 0.0 5.0 0.00 0.00 0.00 87 1011.1
20260904005213 82 152 4.0 5.0 0.00 0.00 0.00 87 1011.2
20260904004712 82 174 1.0 4.0 0.00 0.00 0.00 87 1011.3
20260904004208 82 220 2.0 8.0 0.00 0.00 0.00 86 1011.2
20260904003702 83 99 2.0 7.0 0.00 0.00 0.00 86 1011.2
20260904003158 83 132 4.0 7.0 0.00 0.00 0.00 86 1011.1
20260904002649 83 116 4.0 4.0 0.00 0.00 0.00 86 1011.3
20260904002144 83 163 0.0 4.0 0.00 0.00 0.00 86 1011.4
20260904001639 83 90 1.0 7.0 0.00 0.00 0.00 85 1011.2
20260904001138 84 99 0.0 4.0 0.00 0.00 0.00 85 1011.3
20260904000633 84 115 2.0 3.0 0.00 0.00 0.00 85 1011.3
20260904000129 84 86 3.0 5.0 0.00 0.00 0.00 84 1011.2
20260903235628 84 75 3.0 5.0 0.00 0.00 0.00 84 1011.1
20260903235125 84 98 1.0 6.0 0.00 0.00 0.00 86 1011.1
20260903234619 83 117 2.0 5.0 0.00 0.00 0.00 86 1011.2
20260903234115 83 56 5.0 5.0 0.00 0.00 0.00 86 1011.3
20260903233611 83 72 5.0 5.0 0.00 0.00 0.00 86 1011.3
20260903233107 83 105 4.0 6.0 0.00 0.00 0.00 86 1011.4
20260903232601 83 115 2.0 5.0 0.00 0.00 0.00 87 1011.5
20260903232057 83 157 0.0 5.0 0.00 0.00 0.00 87 1011.4
20260903231551 83 148 2.0 4.0 0.00 0.00 0.00 87 1011.6
20260903231045 83 101 3.0 5.0 0.00 0.00 0.00 86 1011.5
20260903230542 83 113 6.0 6.0 0.00 0.00 0.00 86 1011.5
20260903230040 83 107 2.0 8.0 0.00 0.00 0.00 86 1011.3
20260903225538 83 84 3.0 3.0 0.00 0.00 0.00 86 1011.5
20260903225034 83 106 5.0 10.0 0.00 0.00 0.00 86 1011.5
20260903224530 83 93 4.0 7.0 0.00 0.00 0.00 86 1011.6
20260903224026 83 114 0.0 7.0 0.00 0.00 0.00 86 1011.5
20260903223525 83 90 2.0 4.0 0.00 0.00 0.00 86 1011.6
20260903223024 83 81 4.0 6.0 0.00 0.00 0.00 85 1011.5
20260903222519 83 116 3.0 7.0 0.00 0.00 0.00 86 1011.6
20260903222018 83 109 3.0 9.0 0.00 0.00 0.00 85 1011.3
20260903221514 83 152 4.0 9.0 0.00 0.00 0.00 85 1011.4
20260903221011 83 119 5.0 6.0 0.00 0.00 0.00 85 1011.5
20260903220505 83 90 0.0 6.0 0.00 0.00 0.00 85 1011.5
20260903220004 83 117 4.0 7.0 0.00 0.00 0.00 85 1011.5
20260903215459 84 103 2.0 7.0 0.00 0.00 0.00 85 1011.6
20260903214957 84 101 6.0 12.0 0.00 0.00 0.00 85 1011.8
20260903214453 84 119 6.0 12.0 0.00 0.00 0.00 85 1012.0
20260903213953 84 153 4.0 7.0 0.00 0.00 0.00 86 1012.0
20260903213449 84 103 6.0 13.0 0.00 0.00 0.00 84 1012.0
20260903212944 85 186 1.0 9.0 0.00 0.00 0.00 83 1012.0
20260903212440 85 154 0.0 5.0 0.00 0.00 0.00 82 1012.0
20260903211934 85 39 4.0 7.0 0.00 0.00 0.00 80 1012.1
20260903211430 85 251 0.0 6.0 0.00 0.00 0.00 79 1012.0
20260903210926 85 92 6.0 7.0 0.00 0.00 0.00 80 1011.9
20260903210425 85 155 4.0 9.0 0.00 0.00 0.00 80 1012.2
20260903205921 86 132 4.0 10.0 0.00 0.00 0.00 83 1012.1
20260903205420 86 84 2.0 8.0 0.00 0.00 0.00 83 1012.1
20260903204915 86 125 2.0 7.0 0.00 0.00 0.00 83 1012.0
20260903204411 86 118 3.0 7.0 0.00 0.00 0.00 84 1012.0
20260903203907 86 116 3.0 5.0 0.00 0.00 0.00 86 1011.9
20260903203402 87 154 2.0 9.0 0.00 0.00 0.00 86 1011.9
20260903202901 87 103 5.0 11.0 0.00 0.00 0.00 85 1011.9
20260903202358 87 36 2.0 9.0 0.00 0.00 0.00 85 1012.0
20260903201858 87 126 7.0 8.0 0.00 0.00 0.00 85 1012.4
20260903201353 86 72 5.0 9.0 0.00 0.00 0.00 86 1012.2
20260903200851 86 84 2.0 7.0 0.00 0.00 0.00 86 1012.4
20260903200347 86 106 4.0 11.0 0.00 0.00 0.00 87 1012.6
20260903195842 85 124 6.0 12.0 0.00 0.00 0.00 89 1012.6
20260903195338 85 70 3.0 10.0 0.00 0.00 0.00 90 1012.5
20260903194832 84 41 7.0 11.0 0.00 0.00 0.00 90 1012.7
20260903194328 85 98 4.0 9.0 0.00 0.00 0.00 91 1012.6
20260903193824 85 52 6.0 7.0 0.00 0.00 0.00 92 1012.6
20260903193320 84 28 6.0 9.0 0.00 0.00 0.00 92 1012.7
20260903192815 84 69 5.0 10.0 0.00 0.00 0.00 93 1013.0
20260903192311 84 334 1.0 4.0 0.00 0.00 0.00 93 1012.9
20260903191807 84 34 2.0 5.0 0.00 0.00 0.00 94 1012.7
20260903191302 84 45 3.0 5.0 0.00 0.00 0.00 95 1012.7
20260903190802 84 100 8.0 8.0 0.00 0.00 0.00 95 1012.6
20260903190257 83 61 3.0 9.0 0.00 0.00 0.00 96 1013.2
20260903185751 83 73 5.0 9.0 0.00 0.00 0.00 97 1013.0
20260903185251 83 357 3.0 5.0 0.00 0.00 0.00 97 1013.2
20260903184748 82 58 4.0 6.0 0.00 0.00 0.00 97 1013.1
20260903184243 82 9 2.0 6.0 0.00 0.00 0.00 98 1013.1
20260903183738 82 77 2.0 6.0 0.00 0.00 0.00 97 1013.3
20260903183232 82 48 5.0 7.0 0.00 0.00 0.00 97 1013.2
20260903182731 82 327 2.0 4.0 0.00 0.00 0.00 97 1013.1
20260903182227 82 12 2.0 7.0 0.00 0.00 0.00 96 1013.2
20260903181726 82 0 0.0 8.0 0.00 0.00 0.00 96 1013.3
20260903181220 82 12 6.0 6.0 0.00 0.00 0.00 96 1013.3
20260903180716 83 66 3.0 7.0 0.00 0.00 0.00 95 1013.5
20260903180210 83 59 4.0 7.0 0.00 0.00 0.00 95 1013.7
20260903175709 84 9 5.0 6.0 0.00 0.00 0.00 94 1013.8
20260903175208 84 63 3.0 6.0 0.00 0.00 0.00 93 1013.8
20260903174703 84 0 2.0 3.0 0.00 0.00 0.00 92 1013.8
20260903174157 84 53 4.0 4.0 0.00 0.00 0.00 90 1013.9
20260903173653 85 9 4.0 7.0 0.00 0.00 0.00 89 1014.3
20260903173149 86 37 2.0 4.0 0.00 0.00 0.00 88 1014.2
20260903172643 86 85 2.0 4.0 0.00 0.00 0.00 88 1014.3
20260903172139 86 42 3.0 3.0 0.00 0.00 0.00 86 1014.2
20260903171638 86 0 0.0 3.0 0.00 0.00 0.00 86 1014.4
20260903171135 86 7 0.0 3.0 0.00 0.00 0.00 86 1014.5
20260903170633 86 90 0.0 3.0 0.00 0.00 0.00 86 1014.4
20260903170129 87 90 0.0 3.0 0.00 0.00 0.00 85 1014.4
20260903165627 87 19 2.0 3.0 0.00 0.00 0.00 84 1014.4
20260903165122 87 74 0.0 2.0 0.00 0.00 0.00 84 1014.3
20260903164617 87 159 0.0 3.0 0.00 0.00 0.00 84 1014.2
20260903164112 87 155 3.0 4.0 0.00 0.00 0.00 84 1014.2
20260903163607 87 90 0.0 2.0 0.00 0.00 0.00 84 1014.3
20260903163103 87 148 3.0 3.0 0.00 0.00 0.00 84 1014.3
20260903162559 87 180 0.0 5.0 0.00 0.00 0.00 85 1014.3
20260903162055 87 172 1.0 3.0 0.00 0.00 0.00 83 1014.2
20260903161550 87 163 0.0 5.0 0.00 0.00 0.00 84 1014.4
20260903161046 87 172 0.0 3.0 0.00 0.00 0.00 85 1014.3
20260903160544 86 106 0.0 4.0 0.00 0.00 0.00 85 1014.3
20260903160039 86 205 4.0 6.0 0.00 0.00 0.00 86 1014.2
20260903155532 86 165 4.0 5.0 0.00 0.00 0.00 86 1014.1
20260903155028 86 233 0.0 6.0 0.00 0.00 0.00 87 1014.2
20260903154524 86 166 5.0 8.0 0.00 0.00 0.00 88 1013.8
20260903154020 85 208 2.0 4.0 0.00 0.00 0.00 89 1014.0
20260903153515 85 176 2.0 6.0 0.00 0.00 0.00 89 1013.9
20260903153011 85 225 2.0 7.0 0.00 0.00 0.00 90 1014.1
20260903152506 85 214 3.0 6.0 0.00 0.00 0.00 90 1013.9
20260903152003 85 240 2.0 5.0 0.00 0.00 0.00 90 1013.9
20260903151456 84 220 3.0 6.0 0.00 0.00 0.00 91 1013.8
20260903150952 84 212 5.0 5.0 0.00 0.00 0.00 92 1013.9
20260903150451 84 212 3.0 7.0 0.00 0.00 0.00 92 1013.9
20260903145946 84 214 3.0 6.0 0.00 0.00 0.00 93 1014.0
20260903145441 83 209 3.0 7.0 0.00 0.00 0.00 93 1013.7
20260903144936 83 226 4.0 5.0 0.00 0.00 0.00 94 1013.5
20260903144435 83 168 2.0 4.0 0.00 0.00 0.00 95 1013.7
20260903143932 83 233 8.0 12.0 0.00 0.00 0.00 94 1013.6
20260903143428 82 212 5.0 8.0 0.00 0.00 0.00 95 1013.5
20260903142923 82 220 4.0 6.0 0.00 0.00 0.00 96 1013.7
20260903142419 82 229 2.0 6.0 0.00 0.00 0.00 97 1013.7
20260903141915 82 180 1.0 3.0 0.00 0.00 0.00 97 1013.7
20260903141410 82 210 3.0 5.0 0.00 0.00 0.00 98 1013.5
20260903140906 82 180 0.0 4.0 0.00 0.00 0.00 98 1013.7
20260903140401 82 184 2.0 3.0 0.00 0.00 0.00 98 1013.8
20260903135856 81 159 0.0 3.0 0.00 0.00 0.00 99 1013.7
20260903135351 81 142 4.0 4.0 0.00 0.00 0.00 99 1013.8
20260903134850 81 184 2.0 3.0 0.00 0.00 0.00 99 1013.7
20260903134340 80 154 3.0 5.0 0.00 0.00 0.00 99 1013.5
20260903133837 80 243 2.0 5.0 0.00 0.00 0.00 99 1013.3
20260903133334 80 158 2.0 5.0 0.00 0.00 0.00 99 1013.3
20260903132828 80 228 2.0 4.0 0.00 0.00 0.00 99 1013.3
20260903132324 80 194 1.0 8.0 0.00 0.00 0.00 99 1013.3
20260903131819 80 166 0.0 4.0 0.00 0.00 0.00 99 1013.2
20260903131319 79 154 0.0 3.0 0.00 0.00 0.00 99 1013.3
20260903130813 79 215 0.0 4.0 0.00 0.00 0.00 99 1013.3
20260903130313 79 198 2.0 5.0 0.00 0.00 0.00 99 1013.2
20260903125811 79 154 3.0 4.0 0.00 0.00 0.00 99 1013.4
20260903125307 79 147 3.0 3.0 0.00 0.00 0.00 99 1013.3
20260903124806 79 240 0.0 2.0 0.00 0.00 0.00 99 1013.3
20260903124302 79 165 0.0 2.0 0.00 0.00 0.00 99 1013.2
20260903123800 78 165 1.0 3.0 0.00 0.00 0.00 99 1013.1
20260903123300 78 126 1.0 2.0 0.00 0.00 0.00 99 1013.2
20260903122758 78 120 0.0 2.0 0.00 0.00 0.00 99 1013.2
20260903122253 78 157 0.0 2.0 0.00 0.00 0.00 99 1013.1
20260903121751 78 151 0.0 2.0 0.00 0.00 0.00 99 1012.9
20260903121247 78 236 0.0 3.0 0.00 0.00 0.00 99 1012.5
20260903120743 78 230 3.0 4.0 0.00 0.00 0.00 99 1012.6
20260903120236 78 237 3.0 4.0 0.00 0.00 0.00 99 1012.6
20260903115735 78 246 0.0 3.0 0.00 0.00 0.00 99 1012.6
20260903115230 78 206 0.0 2.0 0.00 0.00 0.00 99 1012.7
20260903114725 78 111 0.0 1.0 0.00 0.00 0.00 99 1013.0
20260903114220 78 83 0.0 3.0 0.00 0.00 0.00 99 1013.1
20260903113715 78 99 0.0 2.0 0.00 0.00 0.00 99 1012.9
20260903113211 78 74 0.0 0.0 0.00 0.00 0.00 99 1012.9
20260903112707 77 81 0.0 0.0 0.00 0.00 0.00 99 1012.7
20260903112203 78 114 0.0 2.0 0.00 0.00 0.00 99 1012.5
20260903111701 77 160 0.0 0.0 0.00 0.00 0.00 99 1012.4
20260903111156 77 262 0.0 0.0 0.00 0.00 0.00 99 1012.9
20260903110653 77 262 0.0 1.0 0.00 0.00 0.00 99 1012.5
20260903110148 77 154 0.0 2.0 0.00 0.00 0.00 99 1012.6
20260903105642 77 126 0.0 1.0 0.00 0.00 0.00 99 1012.5
20260903105138 77 262 0.0 2.0 0.00 0.00 0.00 99 1012.5
20260903104637 77 90 0.0 0.0 0.00 0.00 0.00 99 1012.5
20260903104133 77 90 0.0 1.0 0.00 0.00 0.00 99 1012.6
20260903103628 77 147 0.0 0.0 0.00 0.00 0.00 99 1012.6
20260903103124 77 157 0.0 1.0 0.00 0.00 0.00 99 1012.5
20260903102620 77 225 0.0 2.0 0.00 0.00 0.00 99 1012.7
20260903102118 77 160 0.0 0.0 0.00 0.00 0.00 99 1012.6
20260903101613 77 255 0.0 2.0 0.00 0.00 0.00 99 1012.4
20260903101108 77 239 0.0 2.0 0.00 0.00 0.00 99 1012.4
20260903100603 76 8 0.0 0.0 0.00 0.00 0.00 99 1012.5